GALAXY 17 (G-17)

Last updated on Thu Oct 30 2025 00:02:47 GMT+0000 (Coordinated Universal Time)

1 31307U 07016B 25302.45525015 -.00000195 00000+0 00000+0 0 9991 2 31307 2.3829 82.8092 0005851 142.6152 251.5202 1.00273982 67494
UTC large
Height (km)
Speed (km/s)
/
Latitude / Longitude
Inclination (degrees)
Orbital Period (minutes)
Azimuth
Elevation
Range (km)
Doppler Factor

Next 0 passes for location: London (51.5072 / 0.1276)

Sorry there are no passes over London.